Regional Weather Roundup
Issued by NWS Cleveland, OH

Home | Current Version | Previous Version | Text Only | Print | Product List | Glossary Off
Versions: 1 2 3 4 5 6 7 8 9 10 11 12 13 14 15 16 17 18 19 20 21 22 23 24 25 26 27 28 29 30 31 32 33 34 35 36 37 38 39 40 41 42 43 44 45 46 47 48 49 50

000
ASUS41 KCLE 220602
RWRCLE
OHIO REGIONAL WEATHER ROUNDUP
NATIONAL WEATHER SERVICE CLEVELAND, OH
200 AM EDT FRI SEP 22 2017

NOTE: "FAIR" INDICATES FEW OR NO CLOUDS BELOW 12,000 FEET WITH NO
SIGNIFICANT WEATHER AND/OR OBSTRUCTIONS TO VISIBILITY.

OHZ001>008-015>018-024>027-034-035-043-044-220700-
   NORTHWEST OHIO

CITY           SKY/WX    TMP DP  RH WIND       PRES   REMARKS
DEFIANCE       CLEAR     72  69  90 SE6       30.07S
FINDLAY        CLEAR     74  67  78 CALM      30.08R
TOLEDO EXPRESS CLEAR     72  70  93 E3        30.07F
TOLEDO EXEC    CLEAR     71  68  90 CALM      30.09S
LIMA           CLEAR     68  66  93 CALM      30.09S
$$

OHZ009>014-019>023-028>033-038-089-220700-
   NORTHEAST OHIO

CITY           SKY/WX    TMP DP  RH WIND       PRES   REMARKS
CLE-HOPKINS    PTCLDY    71  63  75 CALM      30.11S
CLE-LAKEFRONT  CLEAR     72  61  68 SE3       30.08S
CUY CO. ARPT   NOT AVBL
LORAIN-ELYRIA  MOCLDY    66  59  78 S3        30.10S
ASHTABULA      CLEAR     61  59  93 CALM      30.12S
AKRON-CANTON   CLEAR     70  61  73 E6        30.11S
WOOSTER        CLEAR     61  60  97 CALM      30.11S
MANSFIELD      CLEAR     68  64  87 SE3       30.12S
YOUNGSTOWN     CLEAR     64  62  93 E6        30.11S
$$

OHZ042-051>053-060>062-070>072-077>081-220700-
  SOUTHWEST OHIO

CITY           SKY/WX    TMP DP  RH WIND       PRES   REMARKS
CINC-COVINGTON PTCLDY    74  69  85 S3        30.09R
CINC-LUNKEN    PTCLDY    69  69 100 CALM      30.09R FOG
HAMILTON       PTCLDY    69  69 100 CALM      30.09R
DAYTON         PTCLDY    73  67  81 S5        30.10S
WRIGHT-PAT AFB CLEAR     70  70 100 CALM      30.09S
DAYTON GENERAL PTCLDY    74  66  76 S3        30.09S
WILMINGTON     CLEAR     68  66  93 CALM      30.10S
$$

OHZ036-037-039>041-045>050-054>059-063>069-073>076-082>088-220700-
  CENTRAL AND SOUTHEAST OHIO

CITY           SKY/WX    TMP DP  RH WIND       PRES   REMARKS
COLUMBUS       PTCLDY    71  67  87 CALM      30.09S
OSU AIRPORT    CLEAR     69  68  96 CALM      30.09S
BOLTON FIELD   CLEAR     66  65  95 CALM      30.10R
RICKENBACK AFB CLEAR     68  67  95 CALM      30.09R
NEWARK         FOG       66  64  93 CALM      30.09S VSB 3/4
MARION         CLEAR     68  64  87 CALM      30.10S
LANCASTER      PTCLDY    63  63 100 CALM      30.10S FOG
ZANESVILLE     CLEAR     66  63  90 CALM      30.09F FOG
NEW PHILLY     NOT AVBL
$$



USA.gov is the U.S. government's official web portal to all federal, state and local government web resources and services.